Weather History for Missoula, MT

Change the Weather History Date:

Saturday, October 15, 2011

  Actual Average Record
Temperature  
Mean Temperature 45 °F 45 °F  
Max Temperature 54 °F 58 °F 81 °F (1991)
Min Temperature 36 °F 32 °F 17 °F (1969)
Degree Days  
Heating Degree Days 20 20  
Month to date heating degree days 211 252  
Since 1 July heating degree days 364 577  
Cooling Degree Days 0 0  
Month to date cooling degree days 0 0  
Year to date cooling degree days 290 332  
Moisture  
Dew Point 39 °F    
Average Humidity 76    
Maximum Humidity 92    
Minimum Humidity 59    
Precipitation  
Precipitation 0.34 in 0.03 in 0.44 in (1979)
Month to date precipitation 1.68 0.42  
Year to date precipitation 12.68 11.62  
Snow  
Snow 0.00 in - - ()
Month to date snowfall 0.0  
Year to date snowfall 42.9  
Since 1 July snowfall 0.0  
Snow Depth 0.00 in    
Sea Level Pressure  
Sea Level Pressure 30.05 in    
Wind  
Wind Speed 5 mph (NNW)    
Max Wind Speed 14 mph    
Max Gust Speed 17 mph    
Visibility 9 miles    
Events Rain    
T = Trace of Precipitation, MM = Missing Value Source: NWS Daily Summary

Daily Weather History Graph

Daily Weather History Graph

Search for Another Location

Airport:

Trip Planner

Search our weather history database for the weather conditions in past years. The results will help you decide how hot, cold, wet, or windy it might be!

Date:

Astronomy

Oct. 15, 2011 Rise Set
Actual Time 7:54 AM MDT 6:49 PM MDT
Civil Twilight 7:23 AM MDT 7:20 PM MDT
Nautical Twilight 6:48 AM MDT 7:55 PM MDT
Astronomical Twilight 6:12 AM MDT 8:30 PM MDT
Moon 8:33 PM MDT (10/15) 11:37 AM MDT (10/15)
Length of Visible Light 11h 56m
Length of Day
10h 55m
Waning Gibbous, 88% of the Moon is Illuminated
Oct 15
Waning Gibbous
Oct 19
Last Quarter
Oct 26
New
Nov 2
First Quarter
Nov 10
Full

Hourly Weather History & Observations

Time (MDT) Temp. Windchill Dew Point Humidity Pressure Visibility Wind Dir Wind Speed Gust Speed Precip Events Conditions
12:01 AM 44.6 °F - 42.8 °F 93% 29.97 in 10.0 mi Calm Calm - N/A   Overcast
12:53 AM 44.1 °F 42.5 °F 42.1 °F 93% 29.98 in 10.0 mi North 3.5 mph - N/A   Overcast
1:53 AM 43.0 °F - 41.0 °F 93% 29.97 in 5.0 mi Calm Calm - 0.05 in Rain Light Rain
2:53 AM 44.1 °F 42.5 °F 41.0 °F 89% 29.96 in 10.0 mi NNW 3.5 mph - 0.05 in Rain Light Rain
3:51 AM 42.8 °F 39.3 °F 41.0 °F 93% 29.94 in 5.0 mi NW 5.8 mph - 0.02 in Rain Rain
3:53 AM 43.0 °F 40.3 °F 41.0 °F 93% 29.97 in 4.0 mi NW 4.6 mph - 0.03 in Rain Rain
4:02 AM 42.8 °F 39.3 °F 42.8 °F 100% 29.93 in 6.0 mi NNW 5.8 mph - 0.01 in Rain Light Rain
4:38 AM 44.6 °F 40.2 °F 41.0 °F 87% 29.93 in 10.0 mi WNW 8.1 mph - 0.01 in Rain Light Rain
4:53 AM 44.1 °F 40.8 °F 42.1 °F 93% 29.97 in 8.0 mi West 5.8 mph - 0.01 in Rain Light Rain
5:53 AM 44.1 °F - 39.9 °F 85% 29.99 in 10.0 mi Calm Calm - 0.02 in Rain Light Rain
6:53 AM 44.6 °F - 39.2 °F 81% 29.97 in 10.0 mi Calm Calm - N/A Rain Light Rain
7:53 AM 42.8 °F 38.0 °F 39.2 °F 87% 29.98 in 10.0 mi North 8.1 mph - N/A Rain Light Rain
8:53 AM 42.1 °F 37.7 °F 37.9 °F 85% 30.04 in 7.0 mi North 6.9 mph - 0.05 in Rain Light Rain
9:53 AM 42.8 °F 36.2 °F 37.4 °F 81% 30.03 in 10.0 mi North 12.7 mph - N/A   Overcast
10:53 AM 44.1 °F 40.1 °F 39.0 °F 82% 30.08 in 10.0 mi North 6.9 mph - 0.00 in   Overcast
11:16 AM 44.6 °F 40.7 °F 39.2 °F 81% 30.06 in 10.0 mi NNW 6.9 mph - N/A   Overcast
11:53 AM 46.0 °F 41.4 °F 39.0 °F 76% 30.09 in 10.0 mi North 9.2 mph - N/A   Overcast
12:01 PM 46.4 °F 42.4 °F 39.2 °F 76% 30.06 in 10.0 mi NNW 8.1 mph - N/A   Overcast
12:53 PM 48.0 °F - 39.0 °F 71% 30.10 in 10.0 mi NW 8.1 mph - N/A   Overcast
1:53 PM 48.0 °F - 37.9 °F 68% 30.10 in 10.0 mi NNW 10.4 mph - N/A   Overcast
2:53 PM 51.1 °F - 37.9 °F 61% 30.09 in 10.0 mi NNW 9.2 mph - N/A   Overcast
3:08 PM 51.8 °F - 39.2 °F 62% 30.07 in 10.0 mi NNW 6.9 mph - N/A   Overcast
3:53 PM 51.8 °F - 39.2 °F 62% 30.07 in 10.0 mi North 4.6 mph - N/A   Overcast
4:46 PM 51.8 °F - 37.4 °F 58% 30.08 in 10.0 mi North 5.8 mph - N/A   Overcast
4:53 PM 52.0 °F - 37.9 °F 59% 30.09 in 10.0 mi North 4.6 mph - N/A   Mostly Cloudy
5:53 PM 52.0 °F - 39.0 °F 61% 30.10 in 10.0 mi North 8.1 mph - N/A   Overcast
6:53 PM 46.9 °F - 37.9 °F 71% 30.11 in 10.0 mi NNW 4.6 mph - N/A   Partly Cloudy
7:53 PM 44.1 °F 42.5 °F 37.0 °F 76% 30.13 in 10.0 mi NNW 3.5 mph - N/A   Partly Cloudy
8:53 PM 43.0 °F - 37.0 °F 80% 30.15 in 10.0 mi Calm Calm - N/A   Clear
9:53 PM 39.9 °F 36.7 °F 36.0 °F 86% 30.15 in 10.0 mi NW 4.6 mph - N/A   Clear
10:53 PM 39.0 °F 34.8 °F 36.0 °F 89% 30.15 in 10.0 mi NNW 5.8 mph - N/A   Scattered Clouds
11:53 PM 37.9 °F - 35.1 °F 89% 30.16 in 10.0 mi Calm Calm - N/A   Partly Cloudy